Content
SEND FEEDBACK

Daily
Averages
Monthly
Summary
United States of America

ULM, ARKANSAS


Home > North America > United States > Arkansas
Elevation: 214 feet     Latitude: 34 29N     Longitude: 091 32W

WEATHER
 
SELECT A DAY
Number of Records: 452,862;   Date Range: 1/1/95 - 7/26/14
 
SHARE

PRINT THIS DATA

[ ← Previous Day ]
WEATHER ALMANAC - JANUARY 31, 2013
[ Next Day → ]
[ °C ]   °F
Weather ElementAverageHighLow
Temperature42.9 °F59 °F (2:35 pm)30.2 °F (3:35 am)
Dewpoint29 °F35.6 °F (6:55 pm)21.2 °F (11:35 pm)
Humidity60.9 %86 % (3:35 am)31 % (3:35 pm)
Barometer30.17 in30.36 in (11:15 pm)30.09 in (3:16 pm)
Wind Speed11.4 mph20.7 mph (7:55 pm)
Wind Gust24.2 mph (3:35 pm)
Weather ElementAverage
Visibility10 mi
Wind DirectionWSW (256 °)

Weather ElementTotal
Precipitation---
Heating Degree Days20.4 (Base 65)
Averaged from 55 records on January 31, 2013
WEATHER CONDITIONS BREAKOUT
WIND DIRECTION BREAKOUT
WEATHER BY HOUR - JANUARY 31, 2013
[ °C ]   °F
Local TimeTemperatureDewpointHumidityBarometerVisibilityWind DirectionWind SpeedGust SpeedPrecipitationEventsConditions
12:36 AM35.6 °F26.6 °F70 %30.10 in10.0 miWest (280°)8.1 mphClear
12:55 AM33.8 °F26.6 °F75 %30.10 in10.0 miWest (280°)8.1 mphClear
1:15 AM35.6 °F26.6 °F70 %30.10 in10.0 miWest (280°)9.2 mphClear
1:55 AM33.8 °F26.6 °F75 %30.10 in10.0 miWest (280°)5.8 mphClear
2:15 AM33.8 °F26.6 °F75 %30.10 in10.0 miWest (280°)5.8 mphClear
2:35 AM32.0 °F26.6 °F80 %30.10 in10.0 miWest (280°)6.9 mphClear
3:15 AM32.0 °F26.6 °F80 %30.11 in10.0 miWSW (240°)5.8 mphClear
3:35 AM30.2 °F26.6 °F86 %30.11 in10.0 miSW (230°)8.1 mphClear
3:55 AM32.0 °F26.6 °F80 %30.11 in10.0 miSW (230°)6.9 mphClear
4:15 AM30.2 °F26.6 °F86 %30.11 in10.0 miSSW (210°)8.1 mphClear
4:35 AM32.0 °F26.6 °F80 %30.12 in10.0 miSW (220°)8.1 mphClear
4:55 AM32.0 °F26.6 °F80 %30.12 in10.0 miSSW (210°)8.1 mphClear
5:35 AM30.2 °F26.6 °F86 %30.14 in10.0 miSSW (200°)5.8 mphClear
5:55 AM30.2 °F24.8 °F80 %30.14 in10.0 miSSW (210°)8.1 mphClear
6:15 AM30.2 °F26.6 °F86 %30.15 in10.0 miSSW (210°)8.1 mphClear
6:36 AM30.2 °F26.6 °F86 %30.16 in10.0 miSSW (210°)8.1 mphClear
6:55 AM30.2 °F26.6 °F86 %30.16 in10.0 miSSW (210°)8.1 mphClear
7:15 AM30.2 °F26.6 °F86 %30.17 in10.0 miSSW (210°)6.9 mphClear
7:55 AM33.8 °F28.4 °F81 %30.18 in10.0 miSW (230°)3.5 mphClear
8:15 AM37.4 °F28.4 °F70 %30.18 in10.0 miSW (230°)8.1 mphClear
8:35 AM39.2 °F30.2 °F70 %30.19 in10.0 miSSW (210°)6.9 mphClear
9:15 AM42.8 °F30.2 °F61 %30.20 in10.0 miSSW (210°)8.1 mphClear
9:35 AM44.6 °F28.4 °F53 %30.20 in10.0 miSW (220°)10.4 mphClear
10:15 AM44.6 °F30.2 °F57 %30.20 in10.0 miSW (230°)13.8 mph18.4 mphClear
10:35 AM46.4 °F30.2 °F53 %30.19 in10.0 miWSW (240°)12.7 mphClear
10:55 AM46.4 °F30.2 °F53 %30.19 in10.0 miWSW (240°)12.7 mphClear
11:16 AM48.2 °F30.2 °F50 %30.18 in10.0 miWSW (240°)11.5 mphClear
11:35 AM50.0 °F32.0 °F50 %30.17 in10.0 miSW (220°)12.7 mphClear
11:55 AM51.8 °F32.0 °F47 %30.16 in10.0 miSW (220°)11.5 mphClear
12:35 PM53.6 °F32.0 °F44 %30.16 in10.0 miSW (230°)11.5 mphClear
12:55 PM55.4 °F32.0 °F41 %30.14 in10.0 miSW (220°)13.8 mphClear
1:35 PM57.2 °F32.0 °F38 %30.12 in10.0 miSSW (200°)12.7 mphClear
2:35 PM59.0 °F30.2 °F34 %30.10 in10.0 miSSW (210°)13.8 mph20.7 mphClear
2:55 PM59.0 °F30.2 °F34 %30.10 in10.0 miSSW (210°)13.8 mphClear
3:16 PM59.0 °F32.0 °F36 %30.09 in10.0 miSSW (210°)17.3 mphClear
3:35 PM59.0 °F28.4 °F31 %30.10 in10.0 miSW (230°)16.1 mph24.2 mphClear
3:55 PM59.0 °F30.2 °F34 %30.11 in10.0 miSW (230°)17.3 mph20.7 mphClear
4:35 PM57.2 °F30.2 °F36 %30.11 in10.0 miSW (230°)12.7 mphClear
4:55 PM57.2 °F30.2 °F36 %30.11 in10.0 miSW (230°)11.5 mphClear
5:15 PM55.4 °F30.2 °F38 %30.11 in10.0 miSW (230°)11.5 mphClear
5:35 PM53.6 °F32.0 °F44 %30.11 in10.0 miSW (230°)11.5 mphClear
5:55 PM51.8 °F33.8 °F50 %30.11 in10.0 miSW (220°)10.4 mphClear
6:55 PM48.2 °F35.6 °F62 %30.16 in10.0 miWNW (290°)8.1 mphClear
7:15 PM46.4 °F35.6 °F66 %30.18 in10.0 miNW (310°)10.4 mphClear
7:55 PM48.2 °F35.6 °F62 %30.20 in10.0 miNNW (330°)20.7 mph24.2 mphClear
8:15 PM48.2 °F30.2 °F50 %30.22 in10.0 miNorth (360°)17.3 mphClear
8:55 PM44.6 °F30.2 °F57 %30.25 in10.0 miNorth (360°)13.8 mphClear
9:15 PM44.6 °F30.2 °F57 %30.27 in10.0 miNorth (350°)15.0 mphClear
9:35 PM44.6 °F28.4 °F53 %30.28 in10.0 miNNW (340°)19.6 mph24.2 mphClear
9:56 PM42.8 °F28.4 °F57 %30.30 in10.0 miNorth (350°)18.4 mph24.2 mphClear
10:15 PM41.0 °F28.4 °F61 %30.32 in10.0 miNorth (350°)15.0 mphClear
10:35 PM39.2 °F28.4 °F65 %30.33 in10.0 miNorth (350°)13.8 mph18.4 mphMostly Cloudy
10:56 PM39.2 °F26.6 °F61 %30.35 in10.0 miNorth (350°)16.1 mphOvercast
11:15 PM37.4 °F24.8 °F60 %30.36 in10.0 miNorth (350°)18.4 mphMostly Cloudy
11:35 PM37.4 °F21.2 °F52 %30.36 in10.0 miNorth (350°)19.6 mphPartly Cloudy
Hourly data recorded from KSGT, located miles away from Ulm, Arkansas







STORIES FROM OUR PARTNERS